Location: ?????????
(38.5999°N, 22.7695°E)
Time: 09:21:07
(UTC+00:00)

Meteor 2-5 Rocket - Pass Details

Date: 23 May 2024
Orbit: 832 x 911 km, 81.2° (Epoch: 23 June)

Event Time Altitude Azimuth Distance (km) Brightness Sun altitude
Exits shadow 01:00:34 31° 183° (S) 1,516 4.6 -20.5°
Maximum altitude 01:03:31 84° 98° (E) 916 3.8 -20.2°
Drops below altitude 10° 01:09:29 10° 11° (N) 2,605 7.1 -19.4°
Sets 01:11:58 0° 10° (N) 3,552 8.0 -19.1°
